User: anonymous   Login
Location: Unspecified
(0.0000°N, 0.0000°E)
Time: 09:06:46
(UTC+00:00)
Language:

SARA - Orbit

View from above orbital plane
View from above orbital plane
View from above satellite
View from above satellite

Ground track
Ground track

The orbit data is extracted from the following two-line orbital elements,

1 21576U 91050C   18020.88380294 +.00000024 +00000-0 +21681-4 0  9997
2 21576 098.7011 056.0253 0004202 039.2171 320.9321 14.41493387392403
Epoch (UTC): 20 January 2018 21:12:40
Eccentricity: 0.0004202
inclination: 98.7011°
perigee height: 750 km
apogee height: 756 km
right ascension of ascending node: 56.0253°
argument of perigee: 39.2171°
revolutions per day: 14.41493387
mean anomaly at epoch: 320.9321°
orbit number at epoch: 39240

The dashed part of the orbit path shows where the satellite is in the earth's shadow,  

DLR